Weather History for Monroe, WI

Change the Weather History Date:

Monday, June 3, 2013

  Actual Average Record
Temperature  
Mean Temperature 58 °F -  
Max Temperature 70 °F 0 °F 91 °F (1999)
Min Temperature 46 °F - 42 °F (2001)
Degree Days  
Heating Degree Days 7    
Growing Degree Days 8 (Base 50)    
Moisture  
Dew Point 42 °F    
Average Humidity 55    
Maximum Humidity 99    
Minimum Humidity 31    
Precipitation  
Precipitation 0.00 in - - ()
Sea Level Pressure  
Sea Level Pressure 30.06 in    
Wind  
Wind Speed 5 mph (SW)    
Max Wind Speed 10 mph    
Max Gust Speed -    
Visibility 10 miles    
Events      
Averages and records for this station are not official NWS values.
T = Trace of Precipitation, MM = Missing Value Source: NWS Daily Summary

Daily Weather History Graph

Daily Weather History Graph

Search for Another Location

Airport:

Trip Planner

Search our weather history database for the weather conditions in past years. The results will help you decide how hot, cold, wet, or windy it might be!

Date:

Astronomy

Jun. 03, 2013 Rise Set
Actual Time 5:22 AM CDT 8:31 PM CDT
Civil Twilight 4:47 AM CDT 9:05 PM CDT
Nautical Twilight 4:03 AM CDT 9:49 PM CDT
Astronomical Twilight 3:11 AM CDT 10:42 PM CDT
Moon 2:25 AM CDT (6/3) 3:56 PM CDT (6/3)
Length of Visible Light 16h 17m
Length of Day
15h 09m
Waning Crescent, 22% of the Moon is Illuminated
Jun 3
Waning Crescent
Jun 8
New
Jun 16
First Quarter
Jun 23
Full
Jun 29
Last Quarter

Hourly Weather History & Observations

Time (CDT) Temp. Windchill Dew Point Humidity Pressure Visibility Wind Dir Wind Speed Gust Speed Precip Events Conditions
12:15 AM 52.7 °F - 42.6 °F 69% 30.03 in 10.0 mi SW 6.9 mph - N/A   Clear
12:35 AM 52.3 °F - 42.1 °F 68% 30.03 in 10.0 mi SW 5.8 mph - N/A   Clear
12:55 AM 52.0 °F - 42.3 °F 69% 30.04 in 10.0 mi SW 6.9 mph - N/A   Clear
1:15 AM 51.3 °F - 42.3 °F 71% 30.04 in 10.0 mi SW 5.8 mph - N/A   Clear
1:35 AM 51.3 °F - 42.4 °F 72% 30.05 in 10.0 mi SW 6.9 mph - N/A   Clear
1:55 AM 51.6 °F - 41.9 °F 69% 30.05 in 10.0 mi SW 6.9 mph - N/A   Clear
2:15 AM 51.4 °F - 41.9 °F 70% 30.05 in 10.0 mi SW 5.8 mph - N/A   Clear
2:35 AM 51.3 °F - 41.9 °F 70% 30.05 in 10.0 mi SW 5.8 mph - N/A   Clear
2:55 AM 50.9 °F - 42.1 °F 72% 30.05 in 10.0 mi WSW 5.8 mph - N/A   Clear
3:15 AM 50.4 °F - 42.6 °F 75% 30.05 in 10.0 mi WSW 6.9 mph - N/A   Scattered Clouds
3:35 AM 49.8 °F - 46.4 °F 88% 30.05 in 10.0 mi WSW 6.9 mph - N/A   Clear
3:55 AM 49.5 °F - 46.4 °F 89% 30.05 in 10.0 mi WSW 5.8 mph - N/A   Clear
4:15 AM 48.6 °F - 46.0 °F 91% 30.05 in 10.0 mi WSW 5.8 mph - N/A   Clear
4:35 AM 48.2 °F - 46.2 °F 93% 30.05 in 10.0 mi SW 4.6 mph - N/A   Clear
4:55 AM 46.0 °F 43.9 °F 45.0 °F 96% 30.05 in 10.0 mi SSW 4.6 mph - N/A   Clear
5:15 AM 46.8 °F - 46.4 °F 99% 30.06 in 10.0 mi SW 5.8 mph - N/A   Clear
5:35 AM 46.8 °F - 45.7 °F 96% 30.06 in 10.0 mi SW 4.6 mph - N/A   Clear
5:55 AM 47.8 °F - 46.4 °F 95% 30.06 in 10.0 mi WSW 5.8 mph - N/A   Clear
6:15 AM 48.6 °F - 46.4 °F 92% 30.07 in 10.0 mi SW 4.6 mph - N/A   Clear
6:35 AM 50.4 °F - 47.8 °F 91% 30.07 in 10.0 mi SW 4.6 mph - N/A   Clear
6:55 AM 52.7 °F - 49.1 °F 88% 30.07 in 10.0 mi SW 4.6 mph - N/A   Clear
7:15 AM 54.5 °F - 44.6 °F 69% 30.07 in 10.0 mi SSW 6.9 mph - N/A   Clear
7:35 AM 55.6 °F - 44.6 °F 67% 30.08 in 10.0 mi SW 8.1 mph - N/A   Clear
7:55 AM 56.1 °F - 44.4 °F 65% 30.09 in 10.0 mi SW 9.2 mph - N/A   Clear
8:15 AM 57.6 °F - 45.0 °F 63% 30.10 in 10.0 mi WSW 10.4 mph - N/A   Clear
8:35 AM 58.1 °F - 45.0 °F 62% 30.10 in 10.0 mi West 9.2 mph - N/A   Clear
8:55 AM 59.0 °F - 45.0 °F 60% 30.11 in 10.0 mi WSW 8.1 mph - N/A   Clear
9:15 AM 59.5 °F - 43.2 °F 55% 30.11 in 10.0 mi West 6.9 mph - N/A   Clear
9:35 AM 60.3 °F - 40.1 °F 47% 30.11 in 10.0 mi West 5.8 mph - N/A   Scattered Clouds
9:55 AM 61.2 °F - 41.2 °F 48% 30.10 in 10.0 mi WSW 5.8 mph - N/A   Mostly Cloudy
10:15 AM 61.9 °F - 42.1 °F 48% 30.10 in 10.0 mi Calm Calm - N/A   Scattered Clouds
10:35 AM 60.6 °F - 40.5 °F 47% 30.10 in 10.0 mi WSW 3.5 mph - N/A   Mostly Cloudy
10:55 AM 61.5 °F - 41.5 °F 48% 30.10 in 10.0 mi SSW 6.9 mph - N/A   Mostly Cloudy
11:15 AM 63.5 °F - 43.5 °F 48% 30.09 in 10.0 mi Calm Calm - N/A   Mostly Cloudy
11:35 AM 63.5 °F - 40.6 °F 43% 30.09 in 10.0 mi WSW 3.5 mph - N/A   Mostly Cloudy
11:55 AM 63.9 °F - 40.6 °F 43% 30.09 in 10.0 mi WSW 6.9 mph - N/A   Mostly Cloudy
12:15 PM 64.6 °F - 38.7 °F 38% 30.08 in 10.0 mi WNW 4.6 mph - N/A   Scattered Clouds
12:35 PM 64.9 °F - 38.7 °F 38% 30.07 in 10.0 mi Calm Calm - N/A   Scattered Clouds
12:55 PM 65.5 °F - 40.3 °F 40% 30.07 in 10.0 mi West 3.5 mph - N/A   Scattered Clouds
1:15 PM 66.6 °F - 41.7 °F 40% 30.07 in 10.0 mi NNW 3.5 mph - N/A   Mostly Cloudy
1:35 PM 66.4 °F - 41.4 °F 40% 30.05 in 10.0 mi North 4.6 mph - N/A   Scattered Clouds
1:55 PM 67.1 °F - 41.4 °F 39% 30.05 in 10.0 mi South 4.6 mph - N/A   Clear
2:15 PM 67.5 °F - 39.0 °F 35% 30.05 in 10.0 mi Calm Calm - N/A   Clear
2:35 PM 67.8 °F - 42.3 °F 39% 30.04 in 10.0 mi Calm Calm - N/A   Clear
2:55 PM 67.3 °F - 41.0 °F 38% 30.03 in 10.0 mi South 3.5 mph - N/A   Clear
3:15 PM 68.0 °F - 40.8 °F 37% 30.04 in 10.0 mi South 4.6 mph - N/A   Clear
3:35 PM 67.6 °F - 40.1 °F 37% 30.04 in 10.0 mi South 5.8 mph - N/A   Clear
3:55 PM 68.2 °F - 40.6 °F 37% 30.03 in 10.0 mi Calm Calm - N/A   Clear
4:15 PM 69.8 °F - 41.4 °F 36% 30.03 in 10.0 mi Calm Calm - N/A   Scattered Clouds
4:35 PM 70.2 °F - 38.7 °F 32% 30.02 in 10.0 mi Calm Calm - N/A   Clear
4:55 PM 69.3 °F - 39.2 °F 33% 30.01 in 10.0 mi SW 3.5 mph - N/A   Clear
5:15 PM 69.3 °F - 40.1 °F 35% 30.01 in 10.0 mi Calm Calm - N/A   Clear
5:35 PM 69.8 °F - 37.4 °F 31% 30.01 in 10.0 mi SSW 3.5 mph - N/A   Clear
5:55 PM 69.3 °F - 37.6 °F 31% 30.02 in 10.0 mi South 3.5 mph - N/A   Clear
6:15 PM 69.3 °F - 37.8 °F 32% 30.02 in 10.0 mi Calm Calm - N/A   Clear
6:35 PM 68.9 °F - 37.2 °F 31% 30.03 in 10.0 mi Calm Calm - N/A   Clear
6:55 PM 68.4 °F - 36.7 °F 31% 30.03 in 10.0 mi Calm Calm - N/A   Clear
7:15 PM 68.5 °F - 36.5 °F 31% 30.04 in 10.0 mi Calm Calm - N/A   Clear
7:35 PM 67.5 °F - 38.1 °F 34% 30.04 in 10.0 mi Calm Calm - N/A   Clear
7:55 PM 67.5 °F - 36.5 °F 32% 30.04 in 10.0 mi Calm Calm - N/A   Clear
8:15 PM 66.7 °F - 37.0 °F 33% 30.04 in 10.0 mi Calm Calm - N/A   Clear
8:35 PM 64.8 °F - 43.5 °F 46% 30.04 in 10.0 mi Calm Calm - N/A   Clear
8:55 PM 63.7 °F - 43.5 °F 48% 30.04 in 10.0 mi Calm Calm - N/A   Clear
9:15 PM 64.6 °F - 38.3 °F 38% 30.05 in 10.0 mi Calm Calm - N/A   Clear
9:35 PM 64.6 °F - 39.0 °F 39% 30.05 in 10.0 mi SE 4.6 mph - N/A   Clear
9:55 PM 63.0 °F - 39.9 °F 43% 30.05 in 10.0 mi SSE 6.9 mph - N/A   Clear
10:15 PM 61.0 °F - 43.0 °F 52% 30.06 in 10.0 mi SSE 6.9 mph - N/A   Clear
10:35 PM 59.5 °F - 43.9 °F 56% 30.07 in 10.0 mi South 5.8 mph - N/A   Clear
10:55 PM 59.0 °F - 44.6 °F 59% 30.07 in 10.0 mi South 6.9 mph - N/A   Clear
11:15 PM 59.2 °F - 44.6 °F 58% 30.08 in 10.0 mi SSW 6.9 mph - N/A   Clear
11:35 PM 59.2 °F - 44.6 °F 58% 30.09 in 10.0 mi SSW 8.1 mph - N/A   Clear
11:55 PM 59.0 °F - 45.0 °F 60% 30.10 in 10.0 mi SSW 8.1 mph - N/A   Clear